Tracking 19800 objects as of 24-Jul-2019
HD Live streaming from Space Station
objects crossing your sky now

FENGYUN 1C DEB

Track FENGYUN 1C DEB now!
10-day predictions


NORAD ID: 31923
Int'l Code: 1999-025CMA
Perigee: 847.8 km
Apogee: 1,314.5 km
Inclination: 98.4 °
Period: 106.7 minutes
Semi major axis: 7452 km
RCS: 0.0082 m2 (small)
Launch date: May 10, 1999
Source: People's Republic of China (PRC)
Launch site: Taiyaun Space Center, China (TSC)

Note: This is SATELLITE DEBRIS
aabbcc
Your satellite tracking list
Your tracking list is empty




NASA's NSSDC Master Catalog

Two Line Element Set (TLE):
1 31923U 99025CMA 19204.11954623  .00000370  00000-0  47509-3 0  9998
2 31923  98.4182 258.9307 0313152 236.4132 120.6752 13.49527862597126
Source of the keplerian elements: AFSPC